Yakima, WA
on Sunday, November 25, 2012

Sunday
Previous Day Next Day
Daily Summary
 ActualAverageRecord
Temperature
Mean Temperature °F 34°F  
Max Temperature 51°F 43°F 64°F (1949)
Min Temperature 24°F 25°F -7°F (1985)
Degree Days
Heating Degree Days 27 31  
Month to date heating degree days 552 668  
Since 1 July heating degree days 1089 1372  
Cooling Degree Days 0 0  
Month to date cooling degree days 0 0  
Year to date cooling degree days 667 472  
Moisture
Dew Point 25°F   
Average Humidity 66    
Maximum Humidity 92    
Minimum Humidity 39    
Precipitation
Precipitation 0.00 in 0.04 in 0.27 in (1971)
Month to date precipitation 0.58 0.84  
Year to date precipitation 7.11 6.51  
Snow
Snow 0.00 in 0.10 in 1.30 in (2005)
Month to date snowfall 0.8 2.3  
Year to date snowfall 22.3 11.0  
Since 1 July snowfall 0.8 2.4  
Snow Depth 0.00 in   
Wind
Wind Speed 4 mph   
Max Wind Speed 8 mph   
Max Gust Speed 15 mph   
Visibility 10 miles   
Events     

Key: T is trace of precipitation, MM is missing value
Source: NWS Daily Summary
Time(PST)TemperatureDew PointHumidity Pressure Visibility Wind DirectionWind SpeedGust SpeedPrecipitationEvents Conditions
12:53 AM 28.9°F 25.0°F 85% 30.21 in 10.0 miles West 5.8 mph - N/A   Clear
1:53 AM 28.9°F 24.1°F 82% 30.21 in 10.0 miles WNW 5.8 mph - N/A   Clear
2:53 AM 27.0°F 23.0°F 85% 30.22 in 10.0 miles West 3.5 mph - N/A   Clear
3:53 AM 28.0°F 23.0°F 81% 30.23 in 10.0 miles WNW 5.8 mph - N/A   Clear
4:53 AM 27.0°F 21.9°F 81% 30.25 in 10.0 miles West 4.6 mph - N/A   Clear
5:53 AM 25.0°F 21.0°F 85% 30.26 in 10.0 miles WNW 4.6 mph - N/A   Clear
6:53 AM 25.0°F 19.9°F 81% 30.27 in 10.0 miles West 5.8 mph - N/A   Clear
7:53 AM 27.0°F 21.9°F 81% 30.28 in 10.0 miles NW 3.5 mph - N/A   Clear
8:53 AM 33.1°F 27.0°F 78% 30.31 in 10.0 miles East 3.5 mph - N/A   Clear
9:53 AM 35.1°F 28.0°F 76% 30.32 in 10.0 miles Calm Calm - 0.00 in   Clear
10:53 AM 44.1°F 28.9°F 55% 30.31 in 10.0 miles Calm Calm - N/A   Clear
11:53 AM 48.0°F 26.1°F 42% 30.30 in 10.0 miles Calm Calm - N/A   Clear
12:53 PM 50.0°F 26.1°F 39% 30.29 in 10.0 miles Calm Calm - N/A   Clear
1:53 PM 48.9°F 25.0°F 39% 30.30 in 10.0 miles Calm Calm - N/A   Partly Cloudy
2:53 PM 48.9°F 27.0°F 43% 30.30 in 10.0 miles South 5.8 mph - N/A   Partly Cloudy
3:53 PM 43.0°F 28.0°F 56% 30.31 in 10.0 miles South 4.6 mph - N/A   Clear
4:53 PM 41.0°F 27.0°F 57% 30.33 in 10.0 miles Calm Calm - N/A   Clear
5:53 PM 32.0°F 25.0°F 75% 30.34 in 10.0 miles West 3.5 mph - N/A   Clear
6:53 PM 30.0°F 24.1°F 79% 30.35 in 10.0 miles West 4.6 mph - N/A   Clear
7:53 PM 28.9°F 25.0°F 85% 30.36 in 10.0 miles WNW 4.6 mph - N/A   Clear
8:53 PM 28.9°F 24.1°F 82% 30.37 in 10.0 miles WNW 6.9 mph - N/A   Clear
9:53 PM 26.1°F 23.0°F 88% 30.37 in 10.0 miles WNW 6.9 mph - N/A   Clear
10:53 PM 25.0°F 21.0°F 85% 30.36 in 10.0 miles Calm Calm - N/A   Clear
11:53 PM 25.0°F 21.0°F 85% 30.36 in 10.0 miles West 3.5 mph - N/A   Clear
Moon Phase
Nov. 25 Nov. 28 Dec. 06 Dec. 13 Dec. 20
Sunrise:07:18 AM (PST) Moon Rise:02:45 PM (PST)11/25
Sunset:04:19 PM (PST) Moon Set:04:31 AM (PST)11/25

Copyright © 2014 The Weather Underground, Inc.